Regional Weather Roundup
Issued by NWS

Home | Current Version | Previous Version | Graphics & Text | Print | Product List | Glossary On
Versions: 1 2 3 4 5 6 7 8 9 10 11 12 13 14 15 16 17 18 19 20 21 22 23 24 25 26 27 28 29 30 31 32 33 34 35 36 37 38 39 40 41 42 43 44 45 46 47 48 49 50
000
ASUS43 KDTX 241410
RWRMI
MICHIGAN HOURLY REGIONAL WEATHER ROUNDUP
NATIONAL WEATHER SERVICE DETROIT/PONTIAC MI
1000 AM EDT FRI OCT 24 2014

NOTE: "FAIR" INDICATES FEW OR NO CLOUDS BELOW 12,000 FEET WITH NO
SIGNIFICANT WEATHER AND/OR OBSTRUCTION TO VISIBILITY.

MIZ047>049-052>055-059>063-066>070-074>076-081>083-241500-
SOUTHEAST LOWER MICHIGAN

CITY           SKY/WX    TMP DP  RH WIND       PRES   REMARKS
ADRIAN         MOSUNNY   43  39  86 W6        30.09F FOG
ALMA           CLOUDY    47  42  82 CALM      30.06S
ANN ARBOR      MOSUNNY   44  39  82 CALM      30.08F
BAD AXE        MOSUNNY   42  42 100 SW6       30.06F
DETROIT CITY   PTSUNNY   49  40  71 W5        30.09F
DETROIT        MOSUNNY   44  39  82 CALM      30.09F
FLINT          CLOUDY    46  40  79 S5        30.08S HAZE
GROSSE ILE     SUNNY     46  41  81 CALM      30.08F
HILLSDALE      CLOUDY    50  46  85 CALM      30.07S
HOWELL         CLOUDY    44  41  89 S3        30.07F FOG

CITY           SKY/WX    TMP DP  RH WIND       PRES   REMARKS
JACKSON        CLOUDY    48  42  80 CALM      30.07S
LAMBERTVILLE   SUNNY     48  41  76 CALM      30.09F
LANSING        CLOUDY    47  42  83 S5        30.07F HAZE
LAPEER         NOT AVBL
MASON          CLOUDY    45  41  86 CALM      30.08R
MONROE         SUNNY     45  43  93 SW3       30.08F FOG
MT. CLEMENS    MOSUNNY   49  41  74 W3        30.06S
PONTIAC        PTSUNNY   44  39  82 SW7       30.06F
PORT HOPE        N/A     47  39  74 SW8       30.02F
PORT HURON     FOG       41  41 100 CALM      30.08S VSB 1
TRI CITIES     CLOUDY    45  39  79 SW8       30.06S
YPSILANTI        N/A     49  40  71 MISG      30.09F
$$
MIZ043>046-050>051-056>058-064>065-071>073-077>080-241500-
SOUTHWEST LOWER MICHIGAN

CITY           SKY/WX    TMP DP  RH WIND       PRES   REMARKS
BATTLE CREEK   CLOUDY    50  43  77 S5        30.07S
BENTON HARBOR  MOSUNNY   52  44  74 VRB5      30.06S
BIG RAPIDS     CLOUDY    48  48 100 CALM      30.04R FOG
COLDWATER      CLOUDY    50  45  83 W3        30.08S
HOLLAND        CLOUDY    56  48  74 S3        30.06S
GRAND RAPIDS   CLOUDY    52  45  77 SW8       30.05F
KALAMAZOO      CLOUDY    51  43  74 SW5       30.07F
MARSHALL       CLOUDY    47  42  82 CALM      30.07R
MUSKEGON       CLOUDY    55  49  80 SW8       30.05S
$$
MIZ016>042-241500-
NORTHERN LOWER MICHIGAN

CITY           SKY/WX    TMP DP  RH WIND       PRES   REMARKS
ALPENA         CLOUDY    46  42  86 CALM      30.03S
BEAVER ISLAND  CLOUDY    52  50  93 SW5       30.00S FOG
BELLAIRE       CLOUDY    51  46  85 CALM      30.02S
CADILLAC       CLOUDY    47  46  99 SW3       30.02S FOG
CHARLEVOIX     CLOUDY    52  49  90 SW3       30.04S
FRANKFORT      CLOUDY    52  49  89 CALM      30.02S FOG
GAYLORD        CLOUDY    47  43  86 S5        30.02R
GRAYLING       CLOUDY    49  45  85 CALM      30.03S
HARBOR SPRINGS CLOUDY    48  43  82 CALM      30.01S
HOUGHTON LAKE  CLOUDY    45  43  93 CALM      30.04S
OSCODA         CLOUDY    45  41  87 SW6       30.03S
PELLSTON       CLOUDY    47  42  83 SE5       30.01S
TRAVERSE CITY  CLOUDY    51  48  89 CALM      30.01R FOG
$$
MIZ007>008-015-241500-
EASTERN UPPER MICHIGAN

CITY           SKY/WX    TMP DP  RH WIND       PRES   REMARKS
KINROSS        CLOUDY    46  46 100 S7        29.99F
MACKINAC ISLAN CLOUDY    49  44  84 S6        30.00S
NEWBERRY       CLOUDY    46  46  98 SW6       29.98S FOG
S. S. MARIE    FOG       44  43  96 E5        29.99F VSB 1/2
$$
MIZ004>006-011>014-085-241500-
CENTRAL UPPER MICHIGAN

CITY           SKY/WX    TMP DP  RH WIND       PRES   REMARKS
MANISTIQUE     CLOUDY    48  47  97 SW3       29.99S FOG
ESCANABA       CLOUDY    45  43  93 W6        29.98F
MENOMINEE      CLOUDY    46  45  93 SW9       29.99F
SAWYER-GWINN   FOG       43  41  93 S8        29.97S VSB 0
$$
MIZ001>003-009>011-084-241500-
WESTERN UPPER MICHIGAN

CITY           SKY/WX    TMP DP  RH WIND       PRES   REMARKS
IRON MOUNTAIN  FOG       43  42  97 S3        29.98S VSB 3/4
HOUGHTON       FOG       45  43  93 S8        29.91F VSB<1/4
COPPER HARBOR    N/A     46  45  96 SW12G23   29.91F
IRONWOOD       CLOUDY    48  46  93 S12       29.89F
$$

ABBREVIATIONS USED IN REMARKS
   TC - TEMPERATURE IN CELSIUS
  WCI - WIND CHILL INDEX
   HX - HEAT INDEX
  VSB - VISIBILITY




USA.gov is the U.S. government's official web portal to all federal, state and local government web resources and services.